�N����,�����b,���ԉ��x,���Ԏ��x,��󒲎�,����,�����W
2003/9/1,0:00:00,24.4 ,71.4 ,24.4 ,24.1 ,24.0 
2003/9/1,0:15:00,24.4 ,71.3 ,24.4 ,24.1 ,24.0 
2003/9/1,0:30:00,24.4 ,71.3 ,24.4 ,24.1 ,23.9 
2003/9/1,0:45:00,24.3 ,71.4 ,24.4 ,24.1 ,23.9 
2003/9/1,1:00:00,24.3 ,71.4 ,24.4 ,24.2 ,23.9 
2003/9/1,1:15:00,24.3 ,71.3 ,24.4 ,24.2 ,23.8 
2003/9/1,1:30:00,24.3 ,71.6 ,24.3 ,24.2 ,23.8 
2003/9/1,1:45:00,24.2 ,71.5 ,24.3 ,24.2 ,23.8 
2003/9/1,2:00:00,24.2 ,71.3 ,24.3 ,24.2 ,23.8 
2003/9/1,2:15:00,24.2 ,71.7 ,24.3 ,24.2 ,23.8 
2003/9/1,2:30:00,24.2 ,71.5 ,24.3 ,24.2 ,23.7 
2003/9/1,2:45:00,24.2 ,71.6 ,24.3 ,24.2 ,23.7 
2003/9/1,3:00:00,24.2 ,71.6 ,24.3 ,24.2 ,23.7 
2003/9/1,3:15:00,24.1 ,71.5 ,24.3 ,24.2 ,23.7 
2003/9/1,3:30:00,24.1 ,71.7 ,24.2 ,23.2 ,23.7 
2003/9/1,3:45:00,24.2 ,71.6 ,24.2 ,23.3 ,23.7 
2003/9/1,4:00:00,24.2 ,71.6 ,24.2 ,23.3 ,23.7 
2003/9/1,4:15:00,24.2 ,71.6 ,24.2 ,23.3 ,23.7 
2003/9/1,4:30:00,24.2 ,71.5 ,24.2 ,23.4 ,23.7 
2003/9/1,4:45:00,24.2 ,71.6 ,24.2 ,23.4 ,23.6 
2003/9/1,5:00:00,24.2 ,71.4 ,24.2 ,23.4 ,23.6 
2003/9/1,5:15:00,24.2 ,71.3 ,24.2 ,23.4 ,23.6 
2003/9/1,5:30:00,24.2 ,71.3 ,24.2 ,23.5 ,23.6 
2003/9/1,5:45:00,24.2 ,71.6 ,24.2 ,23.5 ,23.6 
2003/9/1,6:00:00,24.1 ,71.7 ,24.1 ,23.5 ,23.7 
2003/9/1,6:15:00,24.1 ,71.3 ,24.1 ,23.5 ,24.5 
2003/9/1,6:30:00,24.1 ,71.7 ,24.1 ,24.4 ,25.4 
2003/9/1,6:45:00,24.1 ,71.8 ,24.1 ,24.4 ,28.4 
2003/9/1,7:00:00,24.2 ,71.9 ,24.1 ,24.4 ,26.5 
2003/9/1,7:15:00,24.2 ,71.8 ,24.1 ,24.4 ,25.8 
2003/9/1,7:30:00,24.2 ,72.1 ,24.2 ,24.4 ,25.4 
2003/9/1,7:45:00,24.2 ,71.8 ,24.2 ,24.4 ,25.1 
2003/9/1,8:00:00,24.2 ,72.2 ,24.2 ,24.4 ,25.2 
2003/9/1,8:15:00,24.2 ,72.3 ,24.2 ,24.4 ,24.9 
2003/9/1,8:30:00,24.2 ,72.4 ,24.2 ,24.4 ,25.7 
2003/9/1,8:45:00,24.3 ,72.1 ,24.3 ,24.4 ,25.7 
2003/9/1,9:00:00,24.3 ,72.5 ,24.3 ,24.4 ,25.5 
2003/9/1,9:15:00,24.4 ,72.5 ,24.4 ,24.4 ,25.3 
2003/9/1,9:30:00,24.4 ,72.5 ,24.6 ,24.4 ,25.1 
2003/9/1,9:45:00,24.5 ,72.5 ,24.6 ,24.8 ,24.9 
2003/9/1,10:00:00,24.5 ,72.7 ,24.7 ,24.8 ,24.9 
2003/9/1,10:15:00,24.6 ,72.5 ,24.8 ,24.3 ,24.8 
2003/9/1,10:30:00,24.6 ,72.6 ,24.8 ,24.3 ,24.8 
2003/9/1,10:45:00,24.6 ,72.6 ,24.8 ,24.3 ,24.8 
2003/9/1,11:00:00,24.6 ,72.7 ,24.8 ,24.3 ,24.7 
2003/9/1,11:15:00,24.6 ,72.6 ,24.9 ,24.3 ,24.7 
2003/9/1,11:30:00,24.6 ,72.8 ,24.9 ,24.3 ,24.8 
2003/9/1,11:45:00,24.7 ,73.1 ,25.0 ,24.4 ,24.8 
2003/9/1,12:00:00,24.8 ,73.1 ,25.0 ,24.4 ,24.8 
2003/9/1,12:15:00,24.8 ,73.2 ,25.0 ,24.4 ,24.8 
2003/9/1,12:30:00,24.8 ,73.1 ,25.1 ,24.4 ,24.9 
2003/9/1,12:45:00,24.8 ,73.0 ,25.1 ,24.4 ,24.9 
2003/9/1,13:00:00,24.9 ,73.0 ,25.1 ,24.4 ,24.9 
2003/9/1,13:15:00,24.9 ,72.9 ,25.1 ,24.4 ,24.9 
2003/9/1,13:30:00,24.9 ,72.9 ,25.1 ,24.4 ,24.9 
2003/9/1,13:45:00,24.9 ,73.2 ,25.1 ,24.4 ,24.9 
2003/9/1,14:00:00,24.9 ,73.3 ,25.1 ,24.4 ,24.9 
2003/9/1,14:15:00,25.0 ,73.3 ,25.1 ,24.4 ,25.0 
2003/9/1,14:30:00,25.0 ,73.6 ,25.1 ,24.5 ,28.0 
2003/9/1,14:45:00,25.1 ,73.8 ,25.1 ,24.5 ,32.0 
2003/9/1,15:00:00,25.1 ,73.8 ,25.0 ,24.5 ,30.0 
2003/9/1,15:15:00,25.1 ,74.0 ,25.0 ,24.5 ,27.0 
2003/9/1,15:30:00,25.1 ,73.8 ,25.0 ,24.5 ,26.1 
2003/9/1,15:45:00,25.2 ,73.9 ,25.0 ,24.5 ,26.3 
2003/9/1,16:00:00,25.2 ,73.9 ,24.9 ,24.5 ,26.3 
2003/9/1,16:15:00,25.2 ,73.8 ,24.9 ,24.5 ,26.3 
2003/9/1,16:30:00,25.3 ,73.7 ,24.8 ,24.5 ,26.2 
2003/9/1,16:45:00,25.3 ,73.5 ,24.8 ,24.5 ,27.2 
2003/9/1,17:00:00,25.3 ,73.7 ,24.7 ,24.5 ,30.6 
2003/9/1,17:15:00,25.4 ,73.6 ,24.7 ,24.6 ,28.6 
2003/9/1,17:30:00,25.4 ,73.6 ,24.6 ,24.6 ,27.3 
2003/9/1,17:45:00,25.5 ,73.5 ,24.6 ,23.7 ,26.7 
2003/9/1,18:00:00,25.6 ,73.6 ,24.5 ,23.8 ,26.3 
2003/9/1,18:15:00,25.6 ,73.1 ,24.5 ,23.8 ,28.6 
2003/9/1,18:30:00,25.6 ,72.9 ,24.6 ,23.7 ,27.3 
2003/9/1,18:45:00,25.6 ,72.8 ,24.7 ,23.8 ,26.6 
2003/9/1,19:00:00,25.6 ,72.6 ,24.8 ,23.8 ,26.4 
2003/9/1,19:15:00,25.6 ,72.5 ,24.8 ,23.8 ,26.2 
2003/9/1,19:30:00,25.6 ,72.6 ,24.8 ,23.9 ,26.0 
2003/9/1,19:45:00,25.6 ,72.3 ,24.8 ,23.9 ,25.8 
2003/9/1,20:00:00,25.6 ,72.3 ,24.8 ,23.9 ,25.6 
2003/9/1,20:15:00,25.6 ,72.4 ,25.1 ,23.9 ,25.5 
2003/9/1,20:30:00,25.6 ,72.6 ,25.0 ,24.0 ,25.5 
2003/9/1,20:45:00,25.6 ,72.5 ,24.9 ,24.0 ,25.5 
2003/9/1,21:00:00,25.5 ,72.3 ,24.9 ,24.0 ,25.4 
2003/9/1,21:15:00,25.5 ,72.2 ,24.9 ,24.0 ,25.3 
2003/9/1,21:30:00,25.5 ,72.2 ,24.9 ,24.0 ,25.2 
2003/9/1,21:45:00,25.4 ,72.4 ,24.9 ,24.1 ,25.2 
2003/9/1,22:00:00,25.4 ,72.2 ,24.9 ,24.1 ,25.2 
2003/9/1,22:15:00,25.3 ,72.2 ,24.9 ,24.1 ,25.1 
2003/9/1,22:30:00,25.3 ,72.3 ,24.9 ,24.1 ,25.0 
2003/9/1,22:45:00,25.3 ,72.2 ,24.9 ,24.1 ,25.0 
2003/9/1,23:00:00,25.2 ,72.3 ,24.9 ,24.1 ,24.9 
2003/9/1,23:15:00,25.2 ,72.5 ,24.9 ,24.2 ,25.0 
2003/9/1,23:30:00,25.2 ,72.3 ,24.9 ,24.2 ,24.9 
2003/9/1,23:45:00,25.1 ,72.3 ,24.9 ,24.2 ,24.9 
2003/9/2,0:00:00,25.1 ,72.3 ,24.9 ,24.2 ,24.8 
2003/9/2,0:15:00,25.1 ,72.3 ,24.9 ,24.2 ,24.8 
2003/9/2,0:30:00,25.0 ,72.2 ,24.9 ,24.3 ,24.7 
2003/9/2,0:45:00,25.0 ,72.3 ,24.9 ,24.3 ,24.7 
2003/9/2,1:00:00,25.0 ,72.3 ,24.8 ,24.3 ,24.7 
2003/9/2,1:15:00,25.0 ,72.3 ,24.8 ,24.3 ,24.7 
2003/9/2,1:30:00,24.9 ,72.4 ,24.8 ,24.3 ,24.6 
2003/9/2,1:45:00,24.9 ,72.4 ,24.8 ,24.3 ,24.6 
2003/9/2,2:00:00,24.9 ,72.4 ,24.8 ,24.3 ,24.6 
2003/9/2,2:15:00,24.9 ,72.4 ,24.8 ,24.4 ,24.6 
2003/9/2,2:30:00,24.9 ,72.5 ,24.8 ,24.4 ,24.5 
2003/9/2,2:45:00,24.8 ,72.5 ,24.8 ,24.4 ,24.5 
2003/9/2,3:00:00,24.8 ,72.5 ,24.8 ,24.4 ,24.5 
2003/9/2,3:15:00,24.8 ,72.6 ,24.8 ,24.4 ,24.5 
2003/9/2,3:30:00,24.8 ,72.6 ,24.7 ,24.4 ,24.5 
2003/9/2,3:45:00,24.8 ,72.6 ,24.7 ,24.4 ,24.4 
2003/9/2,4:00:00,24.8 ,72.7 ,24.7 ,24.4 ,24.4 
2003/9/2,4:15:00,24.7 ,72.6 ,24.7 ,24.4 ,24.4 
2003/9/2,4:30:00,24.7 ,72.7 ,24.7 ,24.5 ,24.4 
2003/9/2,4:45:00,24.7 ,72.7 ,24.7 ,24.5 ,24.4 
2003/9/2,5:00:00,24.7 ,72.7 ,24.7 ,24.5 ,24.4 
2003/9/2,5:15:00,24.7 ,72.9 ,24.7 ,24.5 ,24.3 
2003/9/2,5:30:00,24.7 ,72.8 ,24.7 ,24.5 ,24.3 
2003/9/2,5:45:00,24.7 ,72.7 ,24.6 ,24.5 ,24.3 
2003/9/2,6:00:00,24.6 ,72.9 ,24.6 ,24.5 ,24.3 
2003/9/2,6:15:00,24.6 ,73.0 ,24.6 ,24.5 ,24.3 
2003/9/2,6:30:00,24.6 ,73.2 ,24.6 ,23.4 ,24.3 
2003/9/2,6:45:00,24.6 ,73.8 ,24.6 ,23.5 ,24.3 
2003/9/2,7:00:00,24.7 ,73.9 ,24.6 ,24.0 ,24.3 
2003/9/2,7:15:00,24.7 ,74.0 ,24.7 ,24.0 ,24.4 
2003/9/2,7:30:00,24.7 ,73.9 ,24.7 ,23.5 ,24.4 
2003/9/2,7:45:00,24.8 ,74.0 ,24.7 ,23.6 ,24.4 
2003/9/2,8:00:00,24.8 ,74.2 ,24.7 ,23.6 ,24.4 
2003/9/2,8:15:00,24.8 ,74.4 ,24.7 ,23.6 ,24.5 
2003/9/2,8:30:00,24.8 ,74.4 ,24.7 ,23.6 ,24.5 
2003/9/2,8:45:00,24.8 ,74.3 ,24.7 ,23.7 ,24.5 
2003/9/2,9:00:00,24.8 ,74.3 ,24.7 ,23.7 ,24.5 
2003/9/2,9:15:00,24.9 ,74.5 ,24.7 ,23.7 ,24.5 
2003/9/2,9:30:00,24.9 ,74.7 ,24.7 ,23.7 ,24.6 
2003/9/2,9:45:00,25.0 ,74.6 ,24.7 ,23.8 ,24.6 
2003/9/2,10:00:00,25.1 ,74.7 ,24.8 ,23.8 ,24.7 
2003/9/2,10:15:00,25.2 ,74.9 ,24.9 ,23.8 ,24.8 
2003/9/2,10:30:00,25.2 ,74.9 ,24.9 ,23.1 ,24.9 
2003/9/2,10:45:00,25.3 ,74.8 ,25.0 ,23.2 ,25.0 
2003/9/2,11:00:00,25.4 ,74.9 ,25.1 ,23.2 ,25.1 
2003/9/2,11:15:00,25.4 ,74.9 ,25.3 ,23.2 ,25.1 
2003/9/2,11:30:00,25.4 ,75.0 ,25.4 ,23.3 ,25.2 
2003/9/2,11:45:00,25.5 ,75.2 ,25.5 ,23.3 ,25.3 
2003/9/2,12:00:00,25.5 ,75.4 ,25.7 ,23.4 ,25.5 
2003/9/2,12:15:00,25.6 ,75.5 ,25.8 ,23.4 ,25.7 
2003/9/2,12:30:00,25.7 ,75.5 ,25.9 ,23.4 ,25.8 
2003/9/2,12:45:00,25.8 ,75.6 ,26.0 ,23.5 ,26.0 
2003/9/2,13:00:00,25.9 ,75.7 ,26.1 ,23.5 ,26.2 
2003/9/2,13:15:00,26.1 ,75.8 ,26.2 ,23.0 ,26.3 
2003/9/2,13:30:00,26.2 ,75.8 ,26.2 ,23.7 ,26.4 
2003/9/2,13:45:00,26.3 ,75.8 ,26.3 ,23.7 ,26.5 
2003/9/2,14:00:00,26.4 ,75.5 ,26.4 ,23.7 ,26.7 
2003/9/2,14:15:00,26.4 ,75.7 ,26.5 ,23.8 ,26.8 
2003/9/2,14:30:00,26.5 ,75.6 ,26.5 ,23.8 ,26.9 
2003/9/2,14:45:00,26.6 ,75.7 ,26.6 ,23.9 ,27.0 
2003/9/2,15:00:00,26.7 ,75.8 ,26.7 ,23.9 ,27.1 
2003/9/2,15:15:00,26.8 ,76.1 ,26.8 ,23.9 ,27.2 
2003/9/2,15:30:00,26.9 ,76.0 ,26.8 ,24.0 ,27.3 
2003/9/2,15:45:00,27.2 ,76.6 ,27.0 ,24.0 ,27.4 
2003/9/2,16:00:00,27.3 ,77.0 ,27.1 ,24.1 ,27.6 
2003/9/2,16:15:00,27.4 ,76.7 ,27.1 ,24.1 ,27.6 
2003/9/2,16:30:00,27.4 ,76.4 ,27.2 ,24.1 ,27.6 
2003/9/2,16:45:00,27.5 ,76.2 ,27.2 ,24.2 ,27.7 
2003/9/2,17:00:00,27.6 ,76.2 ,27.2 ,24.2 ,28.4 
2003/9/2,17:15:00,27.6 ,76.3 ,27.3 ,24.2 ,28.7 
2003/9/2,17:30:00,27.6 ,75.8 ,27.3 ,24.3 ,28.5 
2003/9/2,17:45:00,27.7 ,75.7 ,27.3 ,24.3 ,28.6 
2003/9/2,18:00:00,27.7 ,75.6 ,27.3 ,24.4 ,28.6 
2003/9/2,18:15:00,27.7 ,74.8 ,27.3 ,23.6 ,28.7 
2003/9/2,18:30:00,27.6 ,74.1 ,27.3 ,23.7 ,29.7 
2003/9/2,18:45:00,27.6 ,74.4 ,27.3 ,23.7 ,29.1 
2003/9/2,19:00:00,27.6 ,74.6 ,27.3 ,23.8 ,28.8 
2003/9/2,19:15:00,27.6 ,74.5 ,27.4 ,23.9 ,28.6 
2003/9/2,19:30:00,27.6 ,74.4 ,27.4 ,23.9 ,28.4 
2003/9/2,19:45:00,27.7 ,74.6 ,27.4 ,24.0 ,28.2 
2003/9/2,20:00:00,27.6 ,72.7 ,27.4 ,24.1 ,28.0 
2003/9/2,20:15:00,27.3 ,68.8 ,27.3 ,24.1 ,27.8 
2003/9/2,20:30:00,27.2 ,67.0 ,27.3 ,24.2 ,27.7 
2003/9/2,20:45:00,27.1 ,65.4 ,27.3 ,24.3 ,27.6 
2003/9/2,21:00:00,27.1 ,64.2 ,27.2 ,24.3 ,27.5 
2003/9/2,21:15:00,27.0 ,63.1 ,27.2 ,24.4 ,27.4 
2003/9/2,21:30:00,27.0 ,63.1 ,27.1 ,24.4 ,27.3 
2003/9/2,21:45:00,27.0 ,62.0 ,27.1 ,24.5 ,27.3 
2003/9/2,22:00:00,27.0 ,63.5 ,27.1 ,24.5 ,27.2 
2003/9/2,22:15:00,26.7 ,62.0 ,26.9 ,24.5 ,27.0 
2003/9/2,22:30:00,26.6 ,66.4 ,26.9 ,24.6 ,26.8 
2003/9/2,22:45:00,26.7 ,66.9 ,26.8 ,24.6 ,26.7 
2003/9/2,23:00:00,26.7 ,66.9 ,26.8 ,24.6 ,26.7 
2003/9/2,23:15:00,26.7 ,66.9 ,26.8 ,24.7 ,26.6 
2003/9/2,23:30:00,26.7 ,67.9 ,26.8 ,24.7 ,26.6 
2003/9/2,23:45:00,26.7 ,68.2 ,26.8 ,24.7 ,26.6 
2003/9/3,0:00:00,26.7 ,68.5 ,26.8 ,24.8 ,26.6 
2003/9/3,0:15:00,26.7 ,68.2 ,26.7 ,24.8 ,26.6 
2003/9/3,0:30:00,26.7 ,68.5 ,26.7 ,24.8 ,26.5 
2003/9/3,0:45:00,26.7 ,68.5 ,26.7 ,24.8 ,26.5 
2003/9/3,1:00:00,26.7 ,68.8 ,26.7 ,24.9 ,26.5 
2003/9/3,1:15:00,26.7 ,68.4 ,26.7 ,24.9 ,26.5 
2003/9/3,1:30:00,26.6 ,68.4 ,26.7 ,24.9 ,26.4 
2003/9/3,1:45:00,26.6 ,68.4 ,26.7 ,24.9 ,26.4 
2003/9/3,2:00:00,26.6 ,68.4 ,26.6 ,25.0 ,26.4 
2003/9/3,2:15:00,26.6 ,67.8 ,26.6 ,25.0 ,26.4 
2003/9/3,2:30:00,26.6 ,68.4 ,26.6 ,25.0 ,26.3 
2003/9/3,2:45:00,26.6 ,68.2 ,26.6 ,25.1 ,26.3 
2003/9/3,3:00:00,26.6 ,67.9 ,26.6 ,25.1 ,26.3 
2003/9/3,3:15:00,26.5 ,67.4 ,26.6 ,24.0 ,26.3 
2003/9/3,3:30:00,26.3 ,67.9 ,26.5 ,24.1 ,26.2 
2003/9/3,3:45:00,26.4 ,67.7 ,26.5 ,24.1 ,26.2 
2003/9/3,4:00:00,26.4 ,67.4 ,26.5 ,24.2 ,26.3 
2003/9/3,4:15:00,26.4 ,68.5 ,26.5 ,24.2 ,26.3 
2003/9/3,4:30:00,26.4 ,68.8 ,26.6 ,24.3 ,26.3 
2003/9/3,4:45:00,26.5 ,68.8 ,26.6 ,24.3 ,26.3 
2003/9/3,5:00:00,26.5 ,68.9 ,26.6 ,24.4 ,26.3 
2003/9/3,5:15:00,26.5 ,69.3 ,26.6 ,24.4 ,26.2 
2003/9/3,5:30:00,26.5 ,69.0 ,26.6 ,24.4 ,26.2 
2003/9/3,5:45:00,26.5 ,69.2 ,26.6 ,24.5 ,26.2 
2003/9/3,6:00:00,26.5 ,69.1 ,26.6 ,24.5 ,26.2 
2003/9/3,6:15:00,26.5 ,68.7 ,26.5 ,24.6 ,26.2 
2003/9/3,6:30:00,26.4 ,68.8 ,26.5 ,24.6 ,26.2 
2003/9/3,6:45:00,26.4 ,69.3 ,26.6 ,24.0 ,26.2 
2003/9/3,7:00:00,26.5 ,69.9 ,26.6 ,24.1 ,26.2 
2003/9/3,7:15:00,26.5 ,69.8 ,26.6 ,24.1 ,26.2 
2003/9/3,7:30:00,26.5 ,70.8 ,26.6 ,23.9 ,26.2 
2003/9/3,7:45:00,26.5 ,70.5 ,26.6 ,24.0 ,26.2 
2003/9/3,8:00:00,26.5 ,71.2 ,26.6 ,24.0 ,26.2 
2003/9/3,8:15:00,26.5 ,71.5 ,26.7 ,24.1 ,26.3 
2003/9/3,8:30:00,26.6 ,71.8 ,26.7 ,24.1 ,26.3 
2003/9/3,8:45:00,26.6 ,71.5 ,26.7 ,23.9 ,26.3 
2003/9/3,9:00:00,26.6 ,71.4 ,26.7 ,24.0 ,26.3 
2003/9/3,9:15:00,26.7 ,71.1 ,26.7 ,24.0 ,26.3 
2003/9/3,9:30:00,26.7 ,71.0 ,26.8 ,24.1 ,26.4 
2003/9/3,9:45:00,26.7 ,70.7 ,26.9 ,24.1 ,26.4 
2003/9/3,10:00:00,26.7 ,70.7 ,27.0 ,24.3 ,26.5 
2003/9/3,10:15:00,26.7 ,70.5 ,26.9 ,24.4 ,26.5 
2003/9/3,10:30:00,26.8 ,70.3 ,26.9 ,24.4 ,26.5 
2003/9/3,10:45:00,26.8 ,70.0 ,27.0 ,24.5 ,26.5 
2003/9/3,11:00:00,26.8 ,69.7 ,27.0 ,24.1 ,26.5 
2003/9/3,11:15:00,26.8 ,69.5 ,27.0 ,24.1 ,28.3 
2003/9/3,11:30:00,26.8 ,69.7 ,27.0 ,24.2 ,28.4 
2003/9/3,11:45:00,26.9 ,69.7 ,27.1 ,24.2 ,28.3 
2003/9/3,12:00:00,26.5 ,67.1 ,27.1 ,24.3 ,28.7 
2003/9/3,12:15:00,26.6 ,70.3 ,27.1 ,23.9 ,28.1 
2003/9/3,12:30:00,26.6 ,70.8 ,27.1 ,24.0 ,27.6 
2003/9/3,12:45:00,26.6 ,70.8 ,27.1 ,24.0 ,27.3 
2003/9/3,13:00:00,26.6 ,70.3 ,27.1 ,24.1 ,27.1 
2003/9/3,13:15:00,26.6 ,69.7 ,27.1 ,23.9 ,26.9 
2003/9/3,13:30:00,26.6 ,69.7 ,27.0 ,24.0 ,26.7 
2003/9/3,13:45:00,26.6 ,70.2 ,27.0 ,24.1 ,26.7 
2003/9/3,14:00:00,26.6 ,70.0 ,27.0 ,24.1 ,26.5 
2003/9/3,14:15:00,26.6 ,70.3 ,27.0 ,23.9 ,26.5 
2003/9/3,14:30:00,26.6 ,70.3 ,27.0 ,24.0 ,26.4 
2003/9/3,14:45:00,26.6 ,68.9 ,27.1 ,24.0 ,26.4 
2003/9/3,15:00:00,26.6 ,69.3 ,27.1 ,24.0 ,26.4 
2003/9/3,15:15:00,26.6 ,70.1 ,27.0 ,24.4 ,27.3 
2003/9/3,15:30:00,26.6 ,69.9 ,27.0 ,24.4 ,27.1 
2003/9/3,15:45:00,26.6 ,69.9 ,27.0 ,24.5 ,26.8 
2003/9/3,16:00:00,26.6 ,69.7 ,27.0 ,24.5 ,26.7 
2003/9/3,16:15:00,26.6 ,69.1 ,27.0 ,24.5 ,26.6 
2003/9/3,16:30:00,26.6 ,69.4 ,27.0 ,24.6 ,26.5 
2003/9/3,16:45:00,26.6 ,69.1 ,26.9 ,24.6 ,26.4 
2003/9/3,17:00:00,26.6 ,68.8 ,26.9 ,24.6 ,26.4 
2003/9/3,17:15:00,26.7 ,69.4 ,26.9 ,25.0 ,26.3 
2003/9/3,17:30:00,26.6 ,70.0 ,26.9 ,25.0 ,26.3 
2003/9/3,17:45:00,26.6 ,69.3 ,26.8 ,24.4 ,26.7 
2003/9/3,18:00:00,26.6 ,69.6 ,26.8 ,24.4 ,26.7 
2003/9/3,18:15:00,26.5 ,69.5 ,26.7 ,24.5 ,27.7 
2003/9/3,18:30:00,26.4 ,69.3 ,26.7 ,24.5 ,27.0 
2003/9/3,18:45:00,26.4 ,70.1 ,26.6 ,24.6 ,26.6 
2003/9/3,19:00:00,26.4 ,69.4 ,26.6 ,24.6 ,26.5 
2003/9/3,19:15:00,26.3 ,68.7 ,26.6 ,24.6 ,26.3 
2003/9/3,19:30:00,26.2 ,68.5 ,26.6 ,24.6 ,26.1 
2003/9/3,19:45:00,26.1 ,68.3 ,26.6 ,24.7 ,26.0 
2003/9/3,20:00:00,26.0 ,68.8 ,26.9 ,24.7 ,25.8 
2003/9/3,20:15:00,26.0 ,68.9 ,26.7 ,24.7 ,25.8 
2003/9/3,20:30:00,25.9 ,69.4 ,26.5 ,24.8 ,25.7 
2003/9/3,20:45:00,25.9 ,69.5 ,26.4 ,24.8 ,25.6 
2003/9/3,21:00:00,25.8 ,69.6 ,26.3 ,24.8 ,25.5 
2003/9/3,21:15:00,25.7 ,69.3 ,26.2 ,24.8 ,25.4 
2003/9/3,21:30:00,25.7 ,69.9 ,26.2 ,24.1 ,26.6 
2003/9/3,21:45:00,25.9 ,71.3 ,26.3 ,24.0 ,28.7 
2003/9/3,22:00:00,26.0 ,70.9 ,26.3 ,24.0 ,28.0 
2003/9/3,22:15:00,26.0 ,70.7 ,26.3 ,24.1 ,27.3 
2003/9/3,22:30:00,26.0 ,70.5 ,26.3 ,24.1 ,26.9 
2003/9/3,22:45:00,26.1 ,70.4 ,26.2 ,24.1 ,26.7 
2003/9/3,23:00:00,26.1 ,70.7 ,26.2 ,24.0 ,26.5 
2003/9/3,23:15:00,26.0 ,70.2 ,26.2 ,23.9 ,26.3 
2003/9/3,23:30:00,26.0 ,70.3 ,26.2 ,24.0 ,26.2 
2003/9/3,23:45:00,26.0 ,70.5 ,26.2 ,24.0 ,26.0 
2003/9/4,0:00:00,25.9 ,70.6 ,26.1 ,24.1 ,25.9 
2003/9/4,0:15:00,25.9 ,70.7 ,26.1 ,24.1 ,25.8 
2003/9/4,0:30:00,25.9 ,70.8 ,26.1 ,24.1 ,25.7 
2003/9/4,0:45:00,25.9 ,70.6 ,26.1 ,24.2 ,25.6 
2003/9/4,1:00:00,25.9 ,70.7 ,26.1 ,24.2 ,25.5 
2003/9/4,1:15:00,25.8 ,70.7 ,26.1 ,24.2 ,25.5 
2003/9/4,1:30:00,25.8 ,70.5 ,26.0 ,24.3 ,25.5 
2003/9/4,1:45:00,25.8 ,70.7 ,26.0 ,24.3 ,25.4 
2003/9/4,2:00:00,25.7 ,70.6 ,26.0 ,24.3 ,25.3 
2003/9/4,2:15:00,25.7 ,70.4 ,25.9 ,24.4 ,25.3 
2003/9/4,2:30:00,25.7 ,70.5 ,25.9 ,24.4 ,25.3 
2003/9/4,2:45:00,25.7 ,70.6 ,25.9 ,24.4 ,25.2 
2003/9/4,3:00:00,25.6 ,70.6 ,25.9 ,24.5 ,25.2 
2003/9/4,3:15:00,25.6 ,70.5 ,25.8 ,24.5 ,25.1 
2003/9/4,3:30:00,25.6 ,70.6 ,25.8 ,24.5 ,25.1 
2003/9/4,3:45:00,25.5 ,70.7 ,25.8 ,24.5 ,25.1 
2003/9/4,4:00:00,25.5 ,70.5 ,25.8 ,24.6 ,25.0 
2003/9/4,4:15:00,25.5 ,70.7 ,25.7 ,24.6 ,25.0 
2003/9/4,4:30:00,25.5 ,70.5 ,25.7 ,24.6 ,25.0 
2003/9/4,4:45:00,25.4 ,70.5 ,25.7 ,24.6 ,24.9 
2003/9/4,5:00:00,25.4 ,70.7 ,25.7 ,24.6 ,24.9 
2003/9/4,5:15:00,25.4 ,70.7 ,25.7 ,24.7 ,24.9 
2003/9/4,5:30:00,25.4 ,70.6 ,25.6 ,24.7 ,24.9 
2003/9/4,5:45:00,25.3 ,70.7 ,25.6 ,24.7 ,24.8 
2003/9/4,6:00:00,25.3 ,70.7 ,25.6 ,24.7 ,24.8 
2003/9/4,6:15:00,25.3 ,70.6 ,25.6 ,24.7 ,24.8 
2003/9/4,6:30:00,25.3 ,70.7 ,25.7 ,24.0 ,24.8 
2003/9/4,6:45:00,25.3 ,71.2 ,25.7 ,24.1 ,24.9 
2003/9/4,7:00:00,25.3 ,71.1 ,25.7 ,24.1 ,24.9 
2003/9/4,7:15:00,25.4 ,71.1 ,25.9 ,24.2 ,25.0 
2003/9/4,7:30:00,25.4 ,71.4 ,26.1 ,23.9 ,25.1 
2003/9/4,7:45:00,25.4 ,70.9 ,26.2 ,24.2 ,25.3 
2003/9/4,8:00:00,25.4 ,70.3 ,26.2 ,24.2 ,25.3 
2003/9/4,8:15:00,25.4 ,70.4 ,26.4 ,24.2 ,25.4 
2003/9/4,8:30:00,25.4 ,70.1 ,26.6 ,24.3 ,25.5 
2003/9/4,8:45:00,25.3 ,69.8 ,26.8 ,24.2 ,25.6 
2003/9/4,9:00:00,25.3 ,69.3 ,27.1 ,24.2 ,25.7 
2003/9/4,9:15:00,25.3 ,68.2 ,27.3 ,24.3 ,25.7 
2003/9/4,9:30:00,25.2 ,68.4 ,27.4 ,24.3 ,25.7 
2003/9/4,9:45:00,25.2 ,67.4 ,27.5 ,24.3 ,25.8 
2003/9/4,10:00:00,25.2 ,67.5 ,27.6 ,24.3 ,25.9 
2003/9/4,10:15:00,25.2 ,68.3 ,27.8 ,24.4 ,25.9 
2003/9/4,10:30:00,25.2 ,67.4 ,27.9 ,24.4 ,26.0 
2003/9/4,10:45:00,25.2 ,67.2 ,28.1 ,24.4 ,26.0 
2003/9/4,11:00:00,25.2 ,65.9 ,28.1 ,24.4 ,26.0 
2003/9/4,11:15:00,25.2 ,65.6 ,28.0 ,23.7 ,26.2 
2003/9/4,11:30:00,25.3 ,65.9 ,28.1 ,24.1 ,26.3 
2003/9/4,11:45:00,25.5 ,67.6 ,28.2 ,24.1 ,26.5 
2003/9/4,12:00:00,25.7 ,68.4 ,28.2 ,24.2 ,26.6 
2003/9/4,12:15:00,25.8 ,67.2 ,28.2 ,24.0 ,26.7 
2003/9/4,12:30:00,25.9 ,67.2 ,28.2 ,24.0 ,26.8 
2003/9/4,12:45:00,25.9 ,66.9 ,28.2 ,24.0 ,29.6 
2003/9/4,13:00:00,26.0 ,66.4 ,28.1 ,24.0 ,28.5 
2003/9/4,13:15:00,26.1 ,66.0 ,28.1 ,24.1 ,28.1 
2003/9/4,13:30:00,26.2 ,66.7 ,28.1 ,24.1 ,28.0 
2003/9/4,13:45:00,26.2 ,65.6 ,28.0 ,24.2 ,27.8 
2003/9/4,14:00:00,26.3 ,65.6 ,27.9 ,24.0 ,27.6 
2003/9/4,14:15:00,26.3 ,66.1 ,27.9 ,24.1 ,27.6 
2003/9/4,14:30:00,26.4 ,66.3 ,27.8 ,24.1 ,27.4 
2003/9/4,14:45:00,26.4 ,66.6 ,27.8 ,24.2 ,27.4 
2003/9/4,15:00:00,26.5 ,66.3 ,27.8 ,24.2 ,27.4 
2003/9/4,15:15:00,26.5 ,66.0 ,27.7 ,24.3 ,27.3 
2003/9/4,15:30:00,26.5 ,66.0 ,27.6 ,24.3 ,27.2 
2003/9/4,15:45:00,26.5 ,65.9 ,27.5 ,24.3 ,27.2 
2003/9/4,16:00:00,26.5 ,65.9 ,27.5 ,24.4 ,27.2 
2003/9/4,16:15:00,26.6 ,65.3 ,27.4 ,24.4 ,27.1 
2003/9/4,16:30:00,26.6 ,65.6 ,27.3 ,24.5 ,27.0 
2003/9/4,16:45:00,26.7 ,65.7 ,27.2 ,24.5 ,27.0 
2003/9/4,17:00:00,26.7 ,66.5 ,27.2 ,24.5 ,27.0 
2003/9/4,17:15:00,26.7 ,66.1 ,27.1 ,24.6 ,26.9 
2003/9/4,17:30:00,26.7 ,65.1 ,27.0 ,24.6 ,26.8 
2003/9/4,17:45:00,26.4 ,64.3 ,26.9 ,24.6 ,26.4 
2003/9/4,18:00:00,26.4 ,65.2 ,26.8 ,24.7 ,26.2 
2003/9/4,18:15:00,26.4 ,65.0 ,26.6 ,24.7 ,26.2 
2003/9/4,18:30:00,26.3 ,65.3 ,26.6 ,24.7 ,26.1 
2003/9/4,18:45:00,26.3 ,65.4 ,26.6 ,24.7 ,26.1 
2003/9/4,19:00:00,26.2 ,65.2 ,26.5 ,24.8 ,26.0 
2003/9/4,19:15:00,26.2 ,65.9 ,26.4 ,24.8 ,25.9 
2003/9/4,19:30:00,26.2 ,65.7 ,26.3 ,24.8 ,25.8 
2003/9/4,19:45:00,26.1 ,65.5 ,26.4 ,24.8 ,25.7 
2003/9/4,20:00:00,26.0 ,65.3 ,26.3 ,24.8 ,25.6 
2003/9/4,20:15:00,25.9 ,65.3 ,26.5 ,24.8 ,25.5 
2003/9/4,20:30:00,25.9 ,65.3 ,26.8 ,24.9 ,25.5 
2003/9/4,20:45:00,25.8 ,65.4 ,26.4 ,24.9 ,25.4 
2003/9/4,21:00:00,25.7 ,65.4 ,26.1 ,24.9 ,25.3 
2003/9/4,21:15:00,25.6 ,65.4 ,26.0 ,24.9 ,25.2 
2003/9/4,21:30:00,25.6 ,65.7 ,25.9 ,24.9 ,25.1 
2003/9/4,21:45:00,25.5 ,66.0 ,25.7 ,24.9 ,25.0 
2003/9/4,22:00:00,25.4 ,66.0 ,25.6 ,24.9 ,24.8 
2003/9/4,22:15:00,25.3 ,66.0 ,25.5 ,24.9 ,24.7 
2003/9/4,22:30:00,25.2 ,65.9 ,25.4 ,24.9 ,24.6 
2003/9/4,22:45:00,25.1 ,65.6 ,25.3 ,24.9 ,24.5 
2003/9/4,23:00:00,25.0 ,65.4 ,25.1 ,24.9 ,24.4 
2003/9/4,23:15:00,24.9 ,65.1 ,25.0 ,24.9 ,24.3 
2003/9/4,23:30:00,24.8 ,64.8 ,24.9 ,24.9 ,24.2 
2003/9/4,23:45:00,24.7 ,64.8 ,24.8 ,24.0 ,24.0 
2003/9/5,0:00:00,24.6 ,64.7 ,24.7 ,24.0 ,24.0 
2003/9/5,0:15:00,24.6 ,64.3 ,24.6 ,24.0 ,24.0 
2003/9/5,0:30:00,24.6 ,64.8 ,24.6 ,24.1 ,24.0 
2003/9/5,0:45:00,24.6 ,64.9 ,24.7 ,24.1 ,24.0 
2003/9/5,1:00:00,24.6 ,65.1 ,24.7 ,24.1 ,24.0 
2003/9/5,1:15:00,24.5 ,64.8 ,24.6 ,24.1 ,24.0 
2003/9/5,1:30:00,24.5 ,64.9 ,24.6 ,24.1 ,24.0 
2003/9/5,1:45:00,24.4 ,64.5 ,24.6 ,24.1 ,24.0 
2003/9/5,2:00:00,24.4 ,64.7 ,24.5 ,24.1 ,24.0 
2003/9/5,2:15:00,24.4 ,64.8 ,24.5 ,24.1 ,23.9 
2003/9/5,2:30:00,24.3 ,64.8 ,24.4 ,24.1 ,23.9 
2003/9/5,2:45:00,24.3 ,64.5 ,24.4 ,24.1 ,23.8 
2003/9/5,3:00:00,24.2 ,64.3 ,24.3 ,24.1 ,23.8 
2003/9/5,3:15:00,24.2 ,64.6 ,24.3 ,24.2 ,23.7 
2003/9/5,3:30:00,24.1 ,64.6 ,24.2 ,24.1 ,23.6 
2003/9/5,3:45:00,24.0 ,64.1 ,24.2 ,24.2 ,23.6 
2003/9/5,4:00:00,24.0 ,64.3 ,24.1 ,24.2 ,23.5 
2003/9/5,4:15:00,23.9 ,64.6 ,24.1 ,24.2 ,23.4 
2003/9/5,4:30:00,23.9 ,64.7 ,24.0 ,24.2 ,23.4 
2003/9/5,4:45:00,23.8 ,64.7 ,24.0 ,24.2 ,23.3 
2003/9/5,5:00:00,23.8 ,64.4 ,23.9 ,24.2 ,23.3 
2003/9/5,5:15:00,23.7 ,64.8 ,23.8 ,24.2 ,23.2 
2003/9/5,5:30:00,23.7 ,64.1 ,23.8 ,24.2 ,23.2 
2003/9/5,5:45:00,23.6 ,64.0 ,23.7 ,24.2 ,23.1 
2003/9/5,6:00:00,23.5 ,63.8 ,23.7 ,24.2 ,23.0 
2003/9/5,6:15:00,23.5 ,64.2 ,23.6 ,24.2 ,22.9 
2003/9/5,6:30:00,23.4 ,64.3 ,23.6 ,24.2 ,22.9 
2003/9/5,6:45:00,23.4 ,64.4 ,23.7 ,24.2 ,22.9 
2003/9/5,7:00:00,23.4 ,64.6 ,23.7 ,24.1 ,23.0 
2003/9/5,7:15:00,23.3 ,64.9 ,23.8 ,24.2 ,23.1 
2003/9/5,7:30:00,23.3 ,64.9 ,24.0 ,23.6 ,23.2 
2003/9/5,7:45:00,23.4 ,66.1 ,24.2 ,23.6 ,23.3 
2003/9/5,8:00:00,23.5 ,66.1 ,24.3 ,23.6 ,23.4 
2003/9/5,8:15:00,23.5 ,66.3 ,24.4 ,23.6 ,23.6 
2003/9/5,8:30:00,23.6 ,66.8 ,24.6 ,23.6 ,23.7 
2003/9/5,8:45:00,23.7 ,67.1 ,24.7 ,23.6 ,23.9 
2003/9/5,9:00:00,23.8 ,67.1 ,24.9 ,23.2 ,24.0 
2003/9/5,9:15:00,23.9 ,67.4 ,25.0 ,23.3 ,24.2 
2003/9/5,9:30:00,24.0 ,67.7 ,25.2 ,23.3 ,24.3 
2003/9/5,9:45:00,24.1 ,68.1 ,25.4 ,23.3 ,24.4 
2003/9/5,10:00:00,24.2 ,68.3 ,25.7 ,23.3 ,24.6 
2003/9/5,10:15:00,24.3 ,68.5 ,25.8 ,23.3 ,24.7 
2003/9/5,10:30:00,24.4 ,68.6 ,26.0 ,23.4 ,24.8 
2003/9/5,10:45:00,24.5 ,68.5 ,26.1 ,23.4 ,24.9 
2003/9/5,11:00:00,24.6 ,68.3 ,26.2 ,23.4 ,25.1 
2003/9/5,11:15:00,24.7 ,68.8 ,26.4 ,23.4 ,25.2 
2003/9/5,11:30:00,24.8 ,68.5 ,26.4 ,23.4 ,25.3 
2003/9/5,11:45:00,24.8 ,68.1 ,26.4 ,23.5 ,25.4 
2003/9/5,12:00:00,24.9 ,68.1 ,26.5 ,23.5 ,25.5 
2003/9/5,12:15:00,24.9 ,68.0 ,26.5 ,23.5 ,25.6 
2003/9/5,12:30:00,25.0 ,67.6 ,26.5 ,23.5 ,25.8 
2003/9/5,12:45:00,25.1 ,67.5 ,26.6 ,23.6 ,25.9 
2003/9/5,13:00:00,25.2 ,67.2 ,26.6 ,23.6 ,26.1 
2003/9/5,13:15:00,25.2 ,67.3 ,26.6 ,23.6 ,26.2 
2003/9/5,13:30:00,25.3 ,67.3 ,26.6 ,23.6 ,26.3 
2003/9/5,13:45:00,25.4 ,66.9 ,26.7 ,23.7 ,26.4 
2003/9/5,14:00:00,25.5 ,66.9 ,26.7 ,23.7 ,26.5 
2003/9/5,14:15:00,25.6 ,66.6 ,26.7 ,23.7 ,26.6 
2003/9/5,14:30:00,25.7 ,66.4 ,26.8 ,23.8 ,26.7 
2003/9/5,14:45:00,25.8 ,66.4 ,26.8 ,23.8 ,26.8 
2003/9/5,15:00:00,25.9 ,66.5 ,26.8 ,23.8 ,26.9 
2003/9/5,15:15:00,26.1 ,67.0 ,26.9 ,23.8 ,26.9 
2003/9/5,15:30:00,26.2 ,67.6 ,26.9 ,23.9 ,27.0 
2003/9/5,15:45:00,26.3 ,67.9 ,27.0 ,23.5 ,27.1 
2003/9/5,16:00:00,26.4 ,67.9 ,27.0 ,23.5 ,27.2 
2003/9/5,16:15:00,26.5 ,67.6 ,27.0 ,23.6 ,27.9 
2003/9/5,16:30:00,26.6 ,68.0 ,27.1 ,23.6 ,30.2 
2003/9/5,16:45:00,26.8 ,68.3 ,27.2 ,23.6 ,30.0 
2003/9/5,17:00:00,26.8 ,67.9 ,27.2 ,23.7 ,29.3 
2003/9/5,17:15:00,26.8 ,67.7 ,27.2 ,23.8 ,28.8 
2003/9/5,17:30:00,26.8 ,67.9 ,27.2 ,23.8 ,28.5 
2003/9/5,17:45:00,26.9 ,68.3 ,27.2 ,23.8 ,28.2 
2003/9/5,18:00:00,26.9 ,67.8 ,27.2 ,23.9 ,28.0 
2003/9/5,18:15:00,26.8 ,67.7 ,27.1 ,23.9 ,27.8 
2003/9/5,18:30:00,26.8 ,67.6 ,27.2 ,24.0 ,28.0 
2003/9/5,18:45:00,26.9 ,67.9 ,27.2 ,24.0 ,29.4 
2003/9/5,19:00:00,26.9 ,67.1 ,27.2 ,24.1 ,28.8 
2003/9/5,19:15:00,26.9 ,66.9 ,27.2 ,24.1 ,28.1 
2003/9/5,19:30:00,27.0 ,66.7 ,27.2 ,24.1 ,27.8 
2003/9/5,19:45:00,26.9 ,65.8 ,27.2 ,24.2 ,27.8 
2003/9/5,20:00:00,26.9 ,65.3 ,27.2 ,24.2 ,27.7 
2003/9/5,20:15:00,26.9 ,64.7 ,27.1 ,24.3 ,27.6 
2003/9/5,20:30:00,26.8 ,63.8 ,27.2 ,24.3 ,27.5 
2003/9/5,20:45:00,26.7 ,62.2 ,27.2 ,24.3 ,27.3 
2003/9/5,21:00:00,26.7 ,62.8 ,27.5 ,24.4 ,27.2 
2003/9/5,21:15:00,26.6 ,63.0 ,27.6 ,24.4 ,27.1 
2003/9/5,21:30:00,26.6 ,62.9 ,27.4 ,24.4 ,27.1 
2003/9/5,21:45:00,26.6 ,64.2 ,27.3 ,24.5 ,28.9 
2003/9/5,22:00:00,26.6 ,64.1 ,27.2 ,24.5 ,28.4 
2003/9/5,22:15:00,26.7 ,63.4 ,27.2 ,24.5 ,28.0 
2003/9/5,22:30:00,26.7 ,63.1 ,27.1 ,24.6 ,27.7 
2003/9/5,22:45:00,26.7 ,63.3 ,27.1 ,24.6 ,27.5 
2003/9/5,23:00:00,26.7 ,62.9 ,27.0 ,24.6 ,27.3 
2003/9/5,23:15:00,26.6 ,62.7 ,27.0 ,24.7 ,27.2 
2003/9/5,23:30:00,26.6 ,62.4 ,26.9 ,24.7 ,27.1 
2003/9/5,23:45:00,26.6 ,62.7 ,26.9 ,24.7 ,26.9 
2003/9/6,0:00:00,26.6 ,62.2 ,26.9 ,23.9 ,26.8 
2003/9/6,0:15:00,26.5 ,62.0 ,26.8 ,23.9 ,26.7 
2003/9/6,0:30:00,26.5 ,63.0 ,26.8 ,24.0 ,26.6 
2003/9/6,0:45:00,26.4 ,63.0 ,26.7 ,24.0 ,26.5 
2003/9/6,1:00:00,26.4 ,63.2 ,26.7 ,24.1 ,26.5 
2003/9/6,1:15:00,26.4 ,62.8 ,26.7 ,24.1 ,26.4 
2003/9/6,1:30:00,26.3 ,62.7 ,26.6 ,24.2 ,26.3 
2003/9/6,1:45:00,26.3 ,63.4 ,26.6 ,24.2 ,26.3 
2003/9/6,2:00:00,26.3 ,63.5 ,26.6 ,24.3 ,26.2 
2003/9/6,2:15:00,26.3 ,63.6 ,26.6 ,24.3 ,26.2 
2003/9/6,2:30:00,26.3 ,63.4 ,26.6 ,24.3 ,26.2 
2003/9/6,2:45:00,26.2 ,63.0 ,26.6 ,24.4 ,26.1 
2003/9/6,3:00:00,26.2 ,62.9 ,26.5 ,24.4 ,26.1 